This is the latest recevied weather packets stored in our database for station/object KA3BQE-13. If no packets are shown the sender has not sent any weather packets the latest 10 day(s).
| Time | Temp. | Humidity | Pressure | Rain* | Wind** | Luminosity | Snow |
|---|---|---|---|---|---|---|---|
| 1777468790 | 13.33° C | 75% | 1015.9 hPa | 0 mm | - | 245 W/m² | - |
| 1777468487 | 12.78° C | 76% | 1015.9 hPa | 0 mm | - | 228 W/m² | - |
| 1777468184 | 13.33° C | 78% | 1015.8 hPa | 0 mm | - | 211 W/m² | - |
| 1777467879 | 12.78° C | 78% | 1015.8 hPa | 0 mm | - | 196 W/m² | - |
| 1777467575 | 12.78° C | 78% | 1015.8 hPa | 0 mm | - | 181 W/m² | - |
| 1777467271 | 12.22° C | 80% | 1015.6 hPa | 0 mm | - | 164 W/m² | - |
| 1777466967 | 12.22° C | 81% | 1015.6 hPa | 0 mm | - | 150 W/m² | - |
| 1777466665 | 12.22° C | 81% | 1015.9 hPa | 0 mm | - | 133 W/m² | - |
| 1777466361 | 11.67° C | 80% | 1015.5 hPa | 0 mm | - | 118 W/m² | - |
| 1777466058 | 11.67° C | 81% | 1015.8 hPa | 0 mm | - | 103 W/m² | - |
| 1777465755 | 11.67° C | 84% | 1015.6 hPa | 0 mm | - | 91 W/m² | - |
| 1777465450 | 11.11° C | 84% | 1015.4 hPa | 0 mm | - | 80 W/m² | - |
| 1777465149 | 10.56° C | 87% | 1015.4 hPa | 0 mm | - | 73 W/m² | - |
| 1777464844 | 10.56° C | 89% | 1015.4 hPa | 0 mm | - | 48 W/m² | - |
| 1777464540 | 10.56° C | 87% | 1015.3 hPa | 0 mm | - | 64 W/m² | - |
| 1777464236 | 10.56° C | 87% | 1015.4 hPa | 0 mm | - | 69 W/m² | - |
| 1777463936 | 10.56° C | 87% | 1015.4 hPa | 0 mm | - | 53 W/m² | - |
| 1777463632 | 10.56° C | 87% | 1015.2 hPa | 0 mm | - | 51 W/m² | - |
| 1777463327 | 10° C | 90% | 1015.3 hPa | 0 mm | - | 46 W/m² | - |
| 1777463024 | 10° C | 90% | 1015.3 hPa | 0 mm | - | 40 W/m² | - |
| 1777462719 | 10° C | 90% | 1015.1 hPa | 0 mm | - | 34 W/m² | - |
| 1777462415 | 9.44° C | 91% | 1015.1 hPa | 0 mm | - | 28 W/m² | - |
| 1777462111 | 8.89° C | 93% | 1014.9 hPa | 0 mm | - | 23 W/m² | - |
| 1777461808 | 8.89° C | 93% | 1014.7 hPa | 0 mm | - | 18 W/m² | - |
| 1777461503 | 8.89° C | 94% | 1014.9 hPa | 0 mm | - | 15 W/m² | - |
* Rain latest hour (hover to see other rain measurements)
** Current wind speed in m/s (hover to see current wind gust speed)